DW7857 Weather Reports


time (UTC)temp
F
wind
direction
speed
knots
gust
knots
rain 1hr
in
rain 24hr
in
rain mn
in
humidity
%
barometer
mb
20201031161516 53 186 3.5 9.6 0.00 0.00 0.00 66 1010.5
20201031161022 54 192 3.5 9.6 0.00 0.00 0.00 65 1010.5
20201031160511 54 225 2.6 5.2 0.00 0.00 0.00 65 1010.6
20201031160024 54 239 3.5 7.0 0.00 0.00 0.00 64 1010.8
20201031155508 54 234 3.5 7.0 0.00 0.00 0.00 64 1010.9
20201031155031 54 248 3.5 8.7 0.00 0.00 0.00 65 1010.8
20201031154544 54 274 3.5 8.7 0.00 0.00 0.00 66 1010.7
20201031154009 54 315 3.5 8.7 0.00 0.00 0.00 66 1010.2
20201031153512 54 260 3.5 9.6 0.00 0.00 0.00 65 1010.5
20201031153020 54 269 4.3 9.6 0.00 0.00 0.00 61 1010.4
20201031152513 55 315 4.3 7.8 0.00 0.00 0.00 61 1010.6
20201031152006 55 218 4.3 9.6 0.00 0.00 0.00 60 1010.2
20201031151515 55 226 6.1 10.4 0.00 0.00 0.00 60 1010.3
20201031151005 56 227 5.2 11.3 0.00 0.00 0.00 60 1009.9
20201031150506 56 223 4.3 12.2 0.00 0.00 0.00 61 1010.2
20201031150024 56 241 5.2 12.2 0.00 0.00 0.00 61 1010.3
20201031145506 56 223 4.3 8.7 0.00 0.00 0.00 62 1010.1
20201031145008 56 212 4.3 9.6 0.00 0.00 0.00 62 1010.0
20201031144539 56 234 3.5 9.6 0.00 0.00 0.00 62 1009.9
20201031144009 56 171 3.5 9.6 0.00 0.00 0.00 61 1009.3
20201031143534 56 189 3.5 9.6 0.00 0.00 0.00 61 1009.6
20201031143021 56 199 3.5 8.7 0.00 0.00 0.00 60 1009.7
20201031142528 57 225 4.3 8.7 0.00 0.00 0.00 58 1009.5
20201031142009 57 235 4.3 11.3 0.00 0.00 0.00 59 1009.1
20201031141514 57 247 4.3 11.3 0.00 0.00 0.00 59 1008.7
20201031141045 57 255 5.2 11.3 0.00 0.00 0.00 59 1008.9
20201031140508 57 248 5.2 9.6 0.00 0.00 0.00 59 1008.5
20201031140024 57 255 5.2 9.6 0.00 0.00 0.00 58 1008.6
20201031135510 57 242 5.2 9.6 0.00 0.00 0.00 57 1008.3
20201031135030 57 285 6.1 13.0 0.00 0.00 0.00 57 1008.1
20201031134523 57 281 6.1 13.0 0.00 0.00 0.00 56 1008.2
20201031134019 57 253 5.2 13.0 0.00 0.00 0.00 57 1008.3
20201031133509 57 279 5.2 13.0 0.00 0.00 0.00 60 1008.3
20201031133026 57 289 6.1 13.0 0.00 0.00 0.00 61 1008.4
20201031132510 56 251 7.0 20.0 0.00 0.00 0.00 61 1008.7
20201031132022 56 225 7.0 20.0 0.00 0.00 0.00 62 1008.5
20201031131532 57 249 5.2 20.0 0.00 0.00 0.00 62 1008.4
20201031131012 58 206 4.3 7.8 0.00 0.00 0.00 64 1008.1
20201031130512 58 270 4.3 11.3 0.00 0.00 0.00 66 1007.6
20201031130024 57 252 5.2 13.0 0.00 0.00 0.00 66 1007.5
20201031125525 57 243 6.1 14.8 0.00 0.00 0.00 65 1007.3
20201031125032 57 270 7.0 14.8 0.00 0.00 0.00 66 1007.3
20201031124531 57 265 5.2 13.9 0.00 0.00 0.00 66 1007.7
20201031124026 57 230 5.2 13.0 0.00 0.00 0.00 68 1007.5
20201031123510 56 251 6.1 13.9 0.00 0.00 0.00 69 1007.3
20201031123022 56 271 6.1 13.9 0.00 0.00 0.00 71 1007.1
20201031122529 56 266 5.2 13.0 0.00 0.00 0.00 72 1007.4
20201031122022 55 288 5.2 11.3 0.00 0.00 0.00 72 1007.4
20201031121517 55 336 5.2 11.3 0.00 0.00 0.00 73 1007.1
20201031121009 55 306 6.1 14.8 0.00 0.00 0.00 75 1007.2
20201031120515 55 291 6.1 14.8 0.00 0.00 0.00 75 1007.1
20201031120023 56 302 5.2 11.3 0.00 0.00 0.00 76 1007.3
20201031115510 57 294 5.2 11.3 0.00 0.00 0.00 77 1006.6
20201031115009 56 294 4.3 9.6 0.00 0.00 0.00 80 1006.2
20201031114517 56 265 4.3 8.7 0.00 0.00 0.00 81 1006.4
20201031114008 56 332 5.2 10.4 0.00 0.00 0.00 82 1006.5
20201031113510 55 14 7.0 14.8 0.00 0.00 0.00 83 1006.1
20201031113025 55 1 7.0 16.5 0.00 0.00 0.00 85 1006.4
20201031112509 56 314 6.1 16.5 0.00 0.00 0.00 89 1005.9
20201031112025 58 228 5.2 13.0 0.00 0.00 0.00 91 1005.9
20201031111518 58 186 5.2 13.0 0.00 0.00 0.00 91 1005.3
20201031111010 58 193 5.2 13.0 0.00 0.00 0.00 91 1005.0
20201031110512 58 177 6.1 13.0 0.00 0.00 0.00 91 1005.0
20201031110020 58 185 7.0 13.0 0.00 0.00 0.00 91 1004.6
20201031105526 58 184 7.8 14.8 0.00 0.00 0.00 91 1005.0
20201031105006 58 183 8.7 14.8 0.00 0.00 0.00 92 1005.0
20201031104525 58 193 9.6 20.0 0.00 0.00 0.00 92 1005.3
20201031104006 58 170 11.3 20.0 0.00 0.00 0.00 92 1004.6
20201031103511 58 201 11.3 21.7 0.00 0.00 0.00 92 1005.0
20201031103010 58 201 10.4 21.7 0.00 0.00 0.00 92 1005.0
20201031102529 58 178 10.4 22.6 0.00 0.00 0.00 92 1004.9
20201031102008 58 184 12.2 32.2 0.00 0.00 0.00 92 1005.1
20201031101520 58 178 11.3 32.2 0.00 0.00 0.00 92 1005.2
20201031101016 58 191 9.6 25.2 0.00 0.00 0.00 92 1005.1
20201031100530 58 199 10.4 25.2 0.00 0.00 0.00 92 1004.7
20201031100023 58 204 10.4 25.2 0.00 0.00 0.00 92 1004.7
20201031095504 57 211 9.6 20.0 0.00 0.00 0.00 91 1005.0
20201031095017 57 196 10.4 20.0 0.00 0.00 0.00 91 1005.5
20201031094519 57 191 11.3 22.6 0.00 0.00 0.00 91 1005.1
20201031094040 57 194 11.3 22.6 0.00 0.00 0.00 91 1005.1
20201031093524 57 201 11.3 22.6 0.00 0.00 0.00 91 1004.9
20201031093020 57 198 11.3 20.0 0.00 0.00 0.00 91 1004.8
20201031092511 57 179 10.4 20.0 0.00 0.00 0.00 91 1005.0
20201031092007 57 167 9.6 20.0 0.00 0.00 0.00 91 1005.1
20201031091522 56 167 10.4 20.0 0.00 0.00 0.00 90 1005.4
20201031091008 56 206 9.6 20.0 0.00 0.00 0.00 90 1005.6
20201031090512 56 206 9.6 23.5 0.00 0.00 0.00 90 1005.8
20201031090032 56 185 10.4 23.5 0.00 0.00 0.00 90 1005.7
20201031085510 56 177 9.6 18.2 0.00 0.00 0.00 90 1005.9
20201031085008 56 192 8.7 16.5 0.00 0.00 0.00 90 1006.2
20201031084522 56 220 8.7 14.8 0.00 0.00 0.00 89 1005.9
20201031084006 56 196 9.6 20.9 0.00 0.00 0.00 89 1006.1
20201031083517 57 184 8.7 20.9 0.00 0.00 0.00 89 1006.5
20201031083023 57 195 7.8 18.2 0.00 0.00 0.00 88 1006.0
20201031082512 57 192 7.8 18.2 0.00 0.00 0.00 88 1006.5
20201031082022 57 173 9.6 19.1 0.00 0.00 0.00 88 1006.5
20201031081518 57 173 9.6 19.1 0.00 0.00 0.00 89 1006.5
20201031081008 57 205 9.6 16.5 0.00 0.00 0.00 89 1006.6
20201031080516 57 191 9.6 14.8 0.00 0.00 0.00 89 1006.7
20201031080019 57 201 8.7 15.6 0.00 0.00 0.00 90 1006.9
20201031075519 57 224 8.7 18.2 0.00 0.00 0.00 90 1007.1
20201031075012 57 202 8.7 18.2 0.00 0.00 0.00 90 1007.2
20201031074519 57 158 7.8 16.5 0.00 0.00 0.00 90 1007.0
20201031074025 57 209 7.0 20.9 0.00 0.00 0.00 90 1007.3
20201031073515 57 201 7.8 22.6 0.00 0.00 0.00 90 1007.2
20201031073022 57 195 7.8 22.6 0.00 0.00 0.00 90 1007.6
20201031072516 57 201 9.6 17.4 0.00 0.00 0.00 90 1007.8
20201031072021 57 206 9.6 17.4 0.00 0.00 0.00 91 1008.0
20201031071510 57 234 7.8 19.1 0.00 0.00 0.00 91 1008.1
20201031071019 57 228 7.0 19.1 0.00 0.00 0.00 90 1008.2
20201031070511 57 210 7.0 16.5 0.00 0.00 0.00 90 1008.3
20201031070019 57 204 7.0 16.5 0.00 0.00 0.00 90 1008.4
20201031065526 57 190 7.0 18.2 0.00 0.00 0.00 90 1008.5
20201031065012 57 202 7.0 18.2 0.00 0.00 0.00 90 1008.7
20201031064523 57 183 7.0 16.5 0.00 0.00 0.00 90 1009.1
20201031064006 57 176 7.8 17.4 0.00 0.00 0.00 90 1008.8
20201031063509 57 171 8.7 17.4 0.00 0.00 0.00 90 1009.0
20201031063020 57 173 8.7 15.6 0.00 0.00 0.00 90 1009.1
20201031062510 57 202 7.0 15.6 0.00 0.00 0.00 90 1009.0
20201031062006 57 198 7.0 14.8 0.00 0.00 0.00 90 1009.3
20201031061517 57 197 7.0 14.8 0.00 0.00 0.00 90 1009.0
20201031061010 57 153 7.0 14.8 0.00 0.00 0.00 90 1009.2
20201031060511 57 140 7.0 14.8 0.00 0.00 0.00 90 1009.2
20201031060021 57 164 7.8 17.4 0.00 0.00 0.00 90 1009.4
20201031055513 57 163 8.7 17.4 0.00 0.00 0.00 90 1009.5
20201031055022 57 154 7.8 15.6 0.00 0.00 0.00 90 1009.5
20201031054516 57 156 8.7 18.2 0.00 0.00 0.00 90 1009.6
20201031054010 57 172 9.6 18.2 0.00 0.00 0.00 90 1009.8
20201031053525 57 188 8.7 18.2 0.00 0.00 0.00 90 1010.0
20201031053025 57 178 7.0 14.8 0.00 0.00 0.00 90 1010.2
20201031052526 57 151 7.0 14.8 0.00 0.00 0.00 90 1010.2
20201031052018 57 198 7.8 14.8 0.00 0.00 0.00 90 1010.2
20201031051517 57 226 7.8 18.2 0.00 0.00 0.00 90 1010.4
20201031051020 57 243 7.8 18.2 0.00 0.00 0.00 90 1010.7
20201031050514 57 237 7.8 15.6 0.00 0.00 0.00 90 1011.1
20201031050019 57 178 8.7 14.8 0.00 0.00 0.00 90 1010.8
20201031045521 57 187 7.8 14.8 0.00 0.00 0.00 90 1010.9
20201031045010 57 204 7.8 18.2 0.00 0.00 0.00 90 1011.0
20201031044520 57 190 9.6 18.2 0.00 0.00 0.00 90 1011.2
20201031044026 57 158 8.7 18.2 0.00 0.00 0.00 90 1011.2
20201031043529 56 173 7.0 14.8 0.00 0.00 0.00 90 1011.3
20201031043029 56 176 6.1 16.5 0.00 0.00 0.00 90 1011.3
20201031042511 56 210 7.0 16.5 0.00 0.00 0.00 89 1011.4
20201031042011 56 227 7.8 16.5 0.00 0.00 0.00 89 1011.7
20201031041522 56 215 7.8 14.8 0.00 0.00 0.00 88 1011.8
20201031041006 57 189 8.7 15.6 0.00 0.00 0.00 88 1011.9
20201031040523 57 164 8.7 15.6 0.00 0.00 0.00 88 1011.9
20201031040044 57 155 7.0 14.8 0.00 0.00 0.00 88 1012.1
20201031035523 57 181 7.0 14.8 0.00 0.00 0.00 88 1012.2
20201031035026 56 223 6.1 14.8 0.00 0.00 0.00 88 1012.5
20201031034519 56 222 4.3 12.2 0.00 0.00 0.00 88 1012.6
20201031034020 56 189 5.2 12.2 0.00 0.00 0.00 88 1012.8
20201031033516 56 182 5.2 13.0 0.00 0.00 0.00 88 1013.1
20201031033024 56 202 5.2 13.0 0.00 0.00 0.00 88 1013.0
20201031032511 56 212 5.2 13.0 0.00 0.00 0.00 88 1013.2
20201031032031 56 189 6.1 13.9 0.00 0.00 0.00 89 1013.4
20201031031523 56 173 6.1 14.8 0.00 0.00 0.00 89 1013.5
20201031031029 56 129 7.0 15.6 0.00 0.00 0.00 89 1013.4
20201031030512 56 208 7.0 15.6 0.00 0.00 0.00 89 1013.7
20201031030025 56 201 7.8 15.6 0.00 0.00 0.00 89 1013.7
20201031025538 56 191 7.8 14.8 0.00 0.00 0.00 89 1013.9
20201031025015 56 194 7.0 18.2 0.00 0.00 0.00 90 1013.8
20201031024535 56 184 7.8 18.2 0.00 0.00 0.00 90 1014.3
20201031024047 56 177 8.7 18.2 0.00 0.00 0.00 90 1014.1
20201031023510 56 182 8.7 14.8 0.00 0.00 0.00 90 1014.0
20201031023034 56 194 9.6 16.5 0.00 0.00 0.00 91 1014.1
20201031022524 56 206 8.7 16.5 0.00 0.00 0.00 91 1014.4
20201031022007 56 206 7.8 14.8 0.00 0.00 0.00 91 1014.2
20201031021513 56 183 9.6 20.0 0.00 0.00 0.00 91 1014.3
20201031021007 56 182 9.6 20.0 0.00 0.00 0.00 91 1014.4
20201031020513 56 183 9.6 20.9 0.00 0.00 0.00 91 1014.8
20201031020011 56 187 11.3 20.9 0.00 0.00 0.00 91 1014.7
20201031015509 56 195 10.4 20.9 0.00 0.00 0.00 92 1014.6
20201031015017 56 184 9.6 16.5 0.00 0.00 0.00 92 1014.9
20201031014519 56 193 10.4 18.2 0.00 0.00 0.00 92 1014.7
20201031014011 56 197 9.6 18.2 0.00 0.00 0.00 92 1014.8
20201031013516 56 200 9.6 18.2 0.00 0.00 0.00 92 1014.7
20201031013027 56 207 9.6 17.4 0.00 0.00 0.00 92 1014.9
20201031012512 56 194 9.6 17.4 0.00 0.00 0.00 92 1014.8
20201031012016 56 188 10.4 19.1 0.00 0.00 0.00 92 1014.8
20201031011521 56 205 10.4 20.0 0.00 0.00 0.00 92 1015.1
20201031011010 56 191 9.6 20.0 0.00 0.00 0.00 92 1015.1
20201031010518 56 171 8.7 14.8 0.00 0.00 0.00 92 1015.1
20201031010019 56 188 10.4 19.1 0.00 0.00 0.00 92 1015.3
20201031005508 56 192 10.4 19.1 0.00 0.00 0.00 92 1015.3
20201031005011 56 174 10.4 20.0 0.00 0.00 0.00 92 1015.5
20201031004521 56 174 11.3 20.0 0.00 0.00 0.00 92 1015.5
20201031004012 56 179 10.4 20.0 0.00 0.00 0.00 92 1015.5
20201031003519 57 192 10.4 17.4 0.00 0.00 0.00 92 1015.5
20201031003022 57 202 10.4 18.2 0.00 0.00 0.00 92 1015.7
20201031002511 57 203 9.6 18.2 0.00 0.00 0.00 92 1015.7
20201031002019 57 191 9.6 18.2 0.00 0.00 0.00 92 1015.7
20201031001542 57 186 9.6 18.2 0.00 0.00 0.00 92 1015.7
20201031001006 57 172 8.7 16.5 0.00 0.00 0.00 92 1015.8
20201031000510 57 171 8.7 16.5 0.00 0.00 0.00 92 1015.9
20201031000027 57 183 10.4 19.1 0.00 0.00 0.00 92 1015.9
20201030235514 57 196 9.6 19.1 0.00 0.00 0.00 92 1016.0
20201030235008 57 199 9.6 16.5 0.00 0.00 0.00 92 1016.3
20201030234523 57 190 10.4 18.2 0.00 0.00 0.00 92 1016.2
20201030234005 57 181 9.6 19.1 0.00 0.00 0.00 92 1016.6
20201030233504 57 176 7.8 19.1 0.00 0.00 0.00 92 1016.7
20201030233026 57 191 7.0 15.6 0.00 0.00 0.00 92 1016.8
20201030232508 57 201 7.8 15.6 0.00 0.00 0.00 92 1017.0
20201030232027 57 185 9.6 15.6 0.00 0.00 0.00 92 1016.6
20201030231522 57 175 8.7 14.8 0.00 0.00 0.00 92 1017.0
20201030231012 57 188 7.8 14.8 0.00 0.00 0.00 92 1016.9
20201030230509 57 204 7.8 13.9 0.00 0.00 0.00 92 1016.7
20201030230024 57 196 7.8 14.8 0.00 0.00 0.00 92 1016.9
20201030225507 57 202 7.0 15.6 0.00 0.00 0.00 92 1017.2
20201030225005 57 199 7.0 15.6 0.00 0.00 0.00 92 1017.1
20201030224523 57 167 6.1 13.0 0.00 0.00 0.00 92 1017.1
20201030224011 57 204 6.1 13.0 0.00 0.00 0.00 92 1017.5
20201030223508 57 210 7.0 13.0 0.00 0.00 0.00 92 1017.6
20201030223019 57 200 7.0 13.0 0.00 0.00 0.00 92 1017.2
20201030222511 57 204 7.0 14.8 0.00 0.00 0.00 92 1017.6
20201030222022 57 209 6.1 14.8 0.00 0.00 0.00 92 1017.9
20201030221519 57 203 6.1 13.0 0.00 0.00 0.00 92 1017.8
20201030221010 57 211 6.1 13.0 0.00 0.00 0.00 92 1017.7
20201030220521 57 207 7.0 13.9 0.00 0.00 0.00 92 1017.8
20201030220022 57 204 6.1 13.9 0.00 0.00 0.00 92 1017.9
20201030215514 57 202 6.1 9.6 0.00 0.00 0.00 92 1017.8
20201030215006 57 190 7.0 14.8 0.00 0.00 0.00 92 1017.8
20201030214542 57 201 7.0 16.5 0.00 0.00 0.00 92 1017.8
20201030214010 57 215 7.0 16.5 0.00 0.00 0.00 92 1017.7
20201030213528 57 213 7.0 16.5 0.00 0.00 0.00 92 1017.8
20201030213023 57 206 7.0 13.9 0.00 0.00 0.00 92 1017.9
20201030212508 57 189 6.1 10.4 0.00 0.00 0.00 92 1018.0
20201030212023 57 213 7.0 15.6 0.00 0.00 0.00 92 1017.9
20201030211519 57 211 7.0 15.6 0.00 0.00 0.00 92 1018.2
20201030211017 57 198 7.8 17.4 0.00 0.00 0.00 92 1018.1
20201030210519 57 200 7.8 17.4 0.00 0.00 0.00 92 1018.3
20201030210021 57 202 7.0 17.4 0.00 0.00 0.00 92 1018.2
20201030205511 57 190 7.0 14.8 0.00 0.00 0.00 92 1018.2
20201030205010 57 189 7.8 14.8 0.00 0.00 0.00 92 1018.2
20201030204517 57 195 6.1 13.9 0.00 0.00 0.00 92 1018.2
20201030204025 57 203 6.1 13.0 0.00 0.00 0.00 92 1018.0
20201030203521 57 204 6.1 13.0 0.00 0.00 0.00 91 1018.2
20201030203032 57 193 6.1 12.2 0.00 0.00 0.00 91 1018.1
20201030202519 57 187 5.2 12.2 0.00 0.00 0.00 91 1018.0
20201030202021 57 193 5.2 12.2 0.00 0.00 0.00 91 1018.1
20201030201522 57 186 6.1 12.2 0.00 0.00 0.00 91 1018.3
20201030201007 57 185 5.2 8.7 0.00 0.00 0.00 91 1018.1
20201030200509 57 204 5.2 11.3 0.00 0.00 0.00 91 1018.3
20201030200020 57 212 5.2 11.3 0.00 0.00 0.00 91 1018.4
20201030195514 57 205 5.2 11.3 0.00 0.00 0.00 91 1018.4
20201030195008 57 193 5.2 10.4 0.00 0.00 0.00 91 1018.1
20201030194526 57 181 5.2 10.4 0.00 0.00 0.00 91 1018.5
20201030194019 57 181 6.1 11.3 0.00 0.00 0.00 91 1018.3
20201030193520 57 194 6.1 13.0 0.00 0.00 0.00 90 1018.5
20201030193023 57 192 5.2 13.0 0.00 0.00 0.00 90 1018.1
20201030192516 57 187 4.3 10.4 0.00 0.00 0.00 90 1018.3
20201030192011 57 200 3.5 7.8 0.00 0.00 0.00 90 1018.3
20201030191521 57 197 4.3 10.4 0.00 0.00 0.00 90 1018.2
20201030191022 57 191 4.3 10.4 0.00 0.00 0.00 90 1018.2
20201030190511 57 192 4.3 10.4 0.00 0.00 0.00 90 1018.1
20201030190022 57 188 6.1 12.2 0.00 0.00 0.00 90 1018.2
20201030185512 57 190 6.1 12.2 0.00 0.00 0.00 90 1018.3
20201030185023 57 205 6.1 12.2 0.00 0.00 0.00 90 1018.1
20201030184519 57 201 6.1 12.2 0.00 0.00 0.00 90 1018.2
20201030184010 57 202 5.2 9.6 0.00 0.00 0.00 90 1018.2
20201030183521 57 197 4.3 9.6 0.00 0.00 0.00 89 1018.1
20201030183020 58 178 4.3 10.4 0.00 0.00 0.00 89 1018.0
20201030182520 58 172 5.2 10.4 0.00 0.00 0.00 89 1018.3
20201030182022 58 188 5.2 13.0 0.00 0.00 0.00 89 1018.3
20201030181521 58 209 5.2 13.0 0.00 0.00 0.00 89 1018.5
20201030181022 58 211 4.3 13.0 0.00 0.00 0.00 89 1018.5
20201030180512 58 205 3.5 13.0 0.00 0.00 0.00 89 1018.4
20201030180031 58 192 3.5 8.7 0.00 0.00 0.00 89 1018.3
20201030175533 58 194 3.5 8.7 0.00 0.00 0.00 88 1018.3
20201030175023 58 188 2.6 8.7 0.00 0.00 0.00 88 1018.3
20201030174521 58 177 3.5 9.6 0.00 0.00 0.00 88 1018.2
20201030174008 58 200 3.5 9.6 0.00 0.00 0.00 88 1018.2
20201030173513 58 195 3.5 8.7 0.00 0.00 0.00 88 1018.4
20201030173028 58 174 3.5 7.8 0.00 0.00 0.00 88 1017.9
20201030172516 58 217 3.5 7.8 0.00 0.00 0.00 88 1018.1
20201030172009 58 195 3.5 7.8 0.00 0.00 0.00 88 1018.2
20201030171521 58 157 2.6 7.0 0.00 0.00 0.00 88 1018.1
20201030171011 58 200 2.6 9.6 0.00 0.00 0.00 88 1017.9
20201030170514 58 193 3.5 9.6 0.00 0.00 0.00 88 1018.0
20201030170034 58 182 3.5 8.7 0.00 0.00 0.00 88 1018.0
20201030165512 58 186 2.6 7.0 0.00 0.00 0.00 88 1017.9
20201030165011 58 211 2.6 7.8 0.00 0.00 0.00 88 1018.0
20201030164517 58 212 3.5 7.8 0.00 0.00 0.00 88 1017.9
20201030164027 58 206 3.5 7.8 0.00 0.00 0.00 88 1017.8
20201030163508 58 213 2.6 7.8 0.00 0.00 0.00 88 1018.0
20201030163020 58 232 3.5 7.8 0.00 0.00 0.00 88 1017.8
20201030162530 58 229 3.5 7.0 0.00 0.00 0.00 88 1017.8
20201030162011 58 226 3.5 7.0 0.00 0.00 0.00 88 1017.8